{"data":{"norad_id":50474,"intl_designator":"2021-132F","name":"ONEWEB-0394","alt_names":[],"object_type":"PAYLOAD","status":"ACTIVE","operator":null,"country":"UK","launch_date":"2021-12-27","launch_site_code":"TYMSC","launch_vehicle":null,"mission":null,"orbit_class":"UNKNOWN","rcs_meters":null,"size_class":null,"mass_kg":null,"dimensions":null,"purposes":["comms"],"wikipedia_slug":null,"has_3d_model":false,"image_url":null,"decayed_at":null,"tle_current":{"epoch":"2026-05-25T02:34:50.768256Z","epoch_age_seconds":66089,"freshness":"FRESH","line1":"1 50474U 21132F   26145.10753204 -.00000022  00000+0 -89441-4 0  9994","line2":"2 50474  87.9169 340.0346 0002074  89.4712 270.6658 13.18687668218555","mean_motion":13.18687668,"eccentricity":0.0002074,"inclination_deg":87.9169,"raan_deg":340.0346,"arg_perigee_deg":89.4712,"mean_anomaly_deg":270.6658,"bstar":-8.9441e-5,"rev_number":21855,"period_min":109.19947421545,"perigee_km":1188.1671681406,"apogee_km":1191.3063221701,"semimajor_km":7567.8737451553,"source":"CELESTRAK","updated_at":"2026-05-25T13:38:22.528764Z"}}}